Regional Weather Roundup
Issued by NWS

Home | Current Version | Previous Version | Text Only | Print | Product List | Glossary On
Versions: 1 2 3 4 5 6 7 8 9 10 11 12 13 14 15 16 17 18 19 20 21 22 23 24 25 26 27 28 29 30 31 32 33 34 35 36 37 38 39 40 41 42 43 44 45 46 47 48 49 50
000
ASUS43 KLMK 230802
RWRKY
KENTUCKY REGIONAL WEATHER ROUNDUP
NATIONAL WEATHER SERVICE LOUISVILLE KY
400 AM EDT THU MAR 23 2017

NOTE "FAIR" INDICATES FEW OR NO CLOUDS BELOW 12,000 FEET
WITH NO SIGNIFICANT WEATHER AND/OR OBSTRUCTIONS TO VISIBILITY.

KYZ001>023-026-027-061>063-070>075-230900-
WESTERN AND SOUTH CENTRAL KENTUCKY

CITY           SKY/WX    TMP DP  RH WIND       PRES   REMARKS
PADUCAH        MOCLDY    42  23  46 E9        30.30F
HENDERSON      CLEAR     36  19  51 E10       30.35F WCI  28
OWENSBORO      CLEAR     37  20  50 E8        30.37F WCI  31
HOPKINSVILLE   CLEAR     37  23  57 E6        30.31F WCI  32
BOWLING GREEN  CLEAR     36  22  56 NE5       30.34F WCI  32
GLASGOW        NOT AVBL
$$

KYZ024-025-028>034-038-045-046-053-230900-
NORTH CENTRAL KENTUCKY

CITY           SKY/WX    TMP DP  RH WIND       PRES   REMARKS
LOUISVILLE/SDF PTCLDY    35  16  45 NE5       30.40F WCI  31
LOUISVILLE/LOU CLEAR     34  18  52 NE6       30.41F WCI  29
FORT KNOX      CLEAR     33  19  57 NE8       30.36S WCI  26
$$

KYZ035>037-039>044-047>052-055>060-089>105-230900-
NORTHEAST KENTUCKY

CITY           SKY/WX    TMP DP  RH WIND       PRES   REMARKS
LEXINGTON      CLOUDY    32  16  51 E12       30.39F WCI  23
COVINGTON      CLEAR     30  19  63 E14       30.42F WCI  19
FRANKFORT      CLEAR     32  16  51 NE7       30.39F WCI  26
$$

KYZ054-064>069-076>088-106>120-230900-
SOUTHEAST KENTUCKY

CITY           SKY/WX    TMP DP  RH WIND       PRES   REMARKS
JACKSON        CLOUDY    32  14  47 NE6       30.37F WCI  26
LONDON         CLOUDY    36  14  40 NE6       30.35F WCI  31
SOMERSET       CLOUDY    34  18  51 E5        30.37F WCI  30
MIDDLESBORO    PTCLDY    35  28  76 CALM      30.35S
MONTICELLO     MOSUNNY   33  23  66 NW7       30.35F WCI  27
$$





USA.gov is the U.S. government's official web portal to all federal, state and local government web resources and services.